Miscellaneous Local Product
Issued by NWS North Platte, NE

Home | Current Version | Previous Version | Graphics & Text | Print | Product List | Glossary On
Versions: 1 2 3 4 5 6 7 8 9 10 11 12 13 14 15 16 17 18 19 20 21 22 23 24 25 26 27 28 29 30 31 32 33 34 35 36 37 38 39 40 41 42 43 44 45 46 47 48 49 50
000
AXUS43 KLBF 291210
MISLBF


WESTERN AND NORTH CENTRAL NEBRASKA HOURLY WEATHER ROUNDUP
NATIONAL WEATHER SERVICE NORTH PLATTE NE
700 AM CDT SAT AUG 29 2015

NOTE: "FAIR" INDICATES FEW OR NO CLOUDS BELOW 12,000 FEET WITH NO
SIGNIFICANT WEATHER AND/OR OBSTRUCTIONS TO VISIBILITY.

NOTE: STATIONS NOT REPORTING VARIABLES SUCH AS SKY/WEATHER OR
PRESSURE ARE PROVIDED BY THE NEBRASKA DEPARTMENT OF
ROADS...RAWS...AND APRS NETWORKS...AND ARE NOT UNDER
NATIONAL WEATHER SERVICE QUALITY CONTROL.

...OBSERVATIONS IN AND NEAR THE EASTERN PANHANDLE OF NEBRASKA...

CITY           SKY/WX    TMP DP  RH WIND       PRES   REMARKS
PINE RIDGE     PTCLDY    51  47  86 CALM      30.09S
CHADRON        CLEAR     52  46  80 CALM      30.08F
ALLIANCE       CLEAR     48  44  86 CALM      30.15F
SIDNEY         CLEAR     48  43  82 W7        30.20S
CRESCENT LAKE    N/A     57  53  86 CALM        N/A
BIG SPRINGS      N/A     54  52  93 CALM        N/A
$$

...OBSERVATIONS IN NORTH CENTRAL NEBRASKA...

CITY           SKY/WX    TMP DP  RH WIND       PRES   REMARKS
VALENTINE      PTCLDY    54  53  97 SW7       30.07R
THEDFORD       CLEAR     56  55  98 W3        30.12R
AINSWORTH      CLEAR     60  59  97 SW3       30.08S
O`NEILL        PTCLDY    55  55  99 CALM      30.08R FOG
ORD            FOG       53  53 100 CALM      30.08R VSB 3/4
BROKEN BOW     CLEAR     62  58  86 CALM      30.10R
SPRINGVIEW       N/A     52  51  95 CALM        N/A
SARGENT          N/A     54  53  97 CALM        N/A
EWING            N/A     54  51  90 CALM        N/A
$$

...OBSERVATIONS IN SOUTHWEST NEBRASKA AND FAR NORTHEAST COLORADO...

CITY           SKY/WX    TMP DP  RH WIND       PRES   REMARKS
WRAY           FAIR      53  50  90 SW3       30.18S
HOLYOKE        FAIR      55  50  82 W3        30.18S
IMPERIAL       CLEAR     60  56  86 W8        30.15S
OGALLALA       CLEAR     53  52  98 W3        30.15S
NORTH PLATTE   MOCLDY    49  48  97 CALM      30.13R FOG
MCCOOK         CLEAR     55  54  96 W7        30.12S
LEXINGTON      CLEAR     55  55  97 W3        30.11R FOG
PAXTON           N/A     56  54  93 CALM        N/A
BRADY            N/A     52  50  93 CALM        N/A
CALLAWAY         N/A     61  60  97 W8          N/A
$$

...OBSERVATIONS IN CENTRAL LINCOLN COUNTY AREA...

CITY           SKY/WX    TMP DP  RH WIND       PRES   REMARKS
N.P. AIRPORT   MOCLDY    49  48  97 CALM      30.13R FOG
N.P. DOWNTOWN    N/A     56  55  97 CALM        N/A
N.P. SOUTHEAST   N/A     56  55  95 CALM        N/A
$$

...SOME OBSERVATIONS FROM AROUND THE REGION...

CITY           SKY/WX    TMP DP  RH WIND       PRES   REMARKS
DENVER         PTCLDY    53  39  59 S10       30.26S
LARAMIE        CLEAR     45  39  79 S8        30.35S
CHEYENNE       CLEAR     53  44  71 W6        30.28F
SCOTTSBLUFF    CLEAR     53  49  86 E3        30.17S
RAPID CITY     PTCLDY    60  53  77 CALM      30.05S
PIERRE         PTCLDY    61  60  97 S6        29.98R
WINNER         FAIR      66  60  81 SW10      30.03R
SIOUX FALLS    CLEAR     52  51  97 CALM      30.06R FOG
OMAHA          DRIZZLE   61  60  97 N8        30.04R
GRAND ISLAND   FOG       58  58 100 N6        30.10R VSB 1/4
KANSAS CITY    CLOUDY    67  65  93 NW7       29.98R
WICHITA        PTCLDY    67  63  87 NW5       30.01R
HAYS           CLEAR     55  48  76 NW6       30.09R
LIBERAL        CLEAR     63  55  77 N6        30.11R
GOODLAND       CLEAR     57  54  89 W6        30.18R
$$



USA.gov is the U.S. government's official web portal to all federal, state and local government web resources and services.